Crosby, ND

7:38 PM CST on November 11, 2019 (GMT -0600)
Crosby

Weather History for KD50 - September, 2019

Change the Weather History Date:

Tuesday, September 3, 2019

  Actual Average (KISN) Record (KISN)
Temperature  
Mean Temperature 59 °F -  
Max Temperature 68 °F 78 °F 102 °F (1978)
Min Temperature 50 °F 50 °F 32 °F (1902)
Degree Days  
Heating Degree Days 6    
Growing Degree Days 9 (Base 50)    
Moisture  
Dew Point 50 °F    
Average Humidity 79    
Maximum Humidity 100    
Minimum Humidity 46    
Precipitation  
Precipitation 0.00 in - - ()
Sea Level Pressure  
Sea Level Pressure 30.05 in    
Wind  
Wind Speed 12 mph (WNW)    
Max Wind Speed 23 mph    
Max Gust Speed 25 mph    
Visibility 10 miles    
Events      
Averages and records for this station are not official NWS values.
T = Trace of Precipitation, MM = Missing Value Source: NWS Daily Summary

Daily Weather History Graph

Daily Weather History Graph

Search for Another Location

Airport or City:

Astronomy

Sep. 03, 2019 Rise Set
Actual Time 7:12 AM CDT 8:31 PM CDT
Civil Twilight 6:39 AM CDT 9:04 PM CDT
Nautical Twilight 6:00 AM CDT 9:43 PM CDT
Astronomical Twilight 5:17 AM CDT 10:26 PM CDT
Moon 12:32 PM CDT (9/3) 11:03 PM CDT (9/3)
Length of Visible Light 14h 24m
Length of Day
13h 19m
Waxing Crescent, 25% of the Moon is Illuminated
Sep 3
Waxing Crescent
Sep 5
First Quarter
Sep 13
Full
Sep 21
Last Quarter
Sep 28
New

Hourly Weather History & Observations

Time (CDT) Temp. Dew Point Humidity Pressure Visibility Wind Dir Wind Speed Gust Speed Precip Events Conditions
12:15 AM 57.2 °F 50.0 °F 77% 29.89 in 10.0 mi NW 9.2 mph 16.1 mph N/A   Scattered Clouds
12:35 AM 57.2 °F 50.0 °F 77% 29.90 in 10.0 mi NW 15.0 mph - N/A   Mostly Cloudy
12:55 AM 57.2 °F 50.0 °F 77% 29.90 in 10.0 mi WNW 15.0 mph - N/A   Mostly Cloudy
1:15 AM 57.2 °F 50.0 °F 77% 29.91 in 10.0 mi WNW 15.0 mph 20.7 mph N/A   Overcast
1:35 AM 57.2 °F 50.0 °F 77% 29.92 in 10.0 mi WNW 13.8 mph 20.7 mph N/A   Mostly Cloudy
1:55 AM 55.4 °F 50.0 °F 82% 29.93 in 10.0 mi WNW 10.4 mph 16.1 mph N/A   Partly Cloudy
2:15 AM 55.4 °F 50.0 °F 82% 29.93 in 10.0 mi WNW 13.8 mph - N/A   Clear
2:35 AM 53.6 °F 50.0 °F 88% 29.94 in 10.0 mi West 9.2 mph - N/A   Clear
2:55 AM 53.6 °F 50.0 °F 88% 29.94 in 10.0 mi West 9.2 mph - N/A   Clear
3:15 AM 51.8 °F 51.8 °F 100% 29.94 in 10.0 mi West 10.4 mph - N/A   Clear
3:35 AM 51.8 °F 51.8 °F 100% 29.95 in 10.0 mi West 9.2 mph - N/A   Clear
3:55 AM 51.8 °F 51.8 °F 100% 29.95 in 10.0 mi West 9.2 mph - N/A   Partly Cloudy
4:15 AM 53.6 °F 51.8 °F 94% 29.96 in 10.0 mi West 11.5 mph - N/A   Mostly Cloudy
4:35 AM 51.8 °F 51.8 °F 100% 29.97 in 10.0 mi West 10.4 mph - N/A   Mostly Cloudy
4:55 AM 51.8 °F 51.8 °F 100% 29.97 in 10.0 mi West 12.7 mph - N/A   Mostly Cloudy
5:15 AM 51.8 °F 51.8 °F 100% 29.98 in 10.0 mi West 12.7 mph - N/A   Mostly Cloudy
5:35 AM 51.8 °F 51.8 °F 100% 29.99 in 10.0 mi West 12.7 mph - N/A   Mostly Cloudy
5:55 AM 50.0 °F 50.0 °F 100% 30.00 in 10.0 mi West 10.4 mph - N/A   Mostly Cloudy
6:15 AM 51.8 °F 51.8 °F 100% 30.01 in 10.0 mi West 11.5 mph 17.3 mph N/A   Overcast
6:35 AM 50.0 °F 50.0 °F 100% 30.01 in 10.0 mi WNW 13.8 mph - N/A   Mostly Cloudy
6:55 AM 50.0 °F 50.0 °F 100% 30.02 in 10.0 mi West 13.8 mph 20.7 mph N/A   Mostly Cloudy
7:15 AM 51.8 °F 51.8 °F 100% 30.02 in 10.0 mi West 13.8 mph - N/A   Overcast
7:35 AM 51.8 °F 51.8 °F 100% 30.03 in 10.0 mi West 15.0 mph - N/A   Overcast
7:55 AM 51.8 °F 51.8 °F 100% 30.03 in 10.0 mi West 12.7 mph 18.4 mph N/A   Overcast
8:15 AM 53.6 °F 53.6 °F 100% 30.04 in 10.0 mi WNW 15.0 mph 20.7 mph N/A   Overcast
8:35 AM 53.6 °F 53.6 °F 100% 30.04 in 10.0 mi West 13.8 mph - N/A   Overcast
8:55 AM 55.4 °F 53.6 °F 94% 30.05 in 10.0 mi WNW 12.7 mph - N/A   Overcast
9:15 AM 55.4 °F 53.6 °F 94% 30.05 in 10.0 mi WNW 13.8 mph - N/A   Overcast
9:35 AM 55.4 °F 53.6 °F 94% 30.06 in 10.0 mi NW 15.0 mph 21.9 mph N/A   Overcast
9:55 AM 55.4 °F 53.6 °F 94% 30.06 in 10.0 mi NW 17.3 mph 24.2 mph N/A   Overcast
10:15 AM 55.4 °F 53.6 °F 94% 30.07 in 10.0 mi NW 23.0 mph - N/A   Overcast
10:35 AM 57.2 °F 53.6 °F 88% 30.07 in 10.0 mi NW 20.7 mph - N/A   Overcast
10:55 AM 57.2 °F 53.6 °F 88% 30.08 in 10.0 mi NW 17.3 mph - N/A   Overcast
11:15 AM 57.2 °F 53.6 °F 88% 30.08 in 10.0 mi NW 12.7 mph 21.9 mph N/A   Overcast
11:35 AM 59.0 °F 51.8 °F 77% 30.09 in 10.0 mi NNW 16.1 mph - N/A   Overcast
11:55 AM 59.0 °F 51.8 °F 77% 30.09 in 10.0 mi WNW 16.1 mph 25.3 mph N/A   Overcast
12:15 PM 59.0 °F 50.0 °F 72% 30.10 in 10.0 mi NNW 17.3 mph - N/A   Overcast
12:35 PM 60.8 °F 50.0 °F 68% 30.10 in 10.0 mi NNW 13.8 mph 24.2 mph N/A   Overcast
12:55 PM 60.8 °F 50.0 °F 68% 30.11 in 10.0 mi NW 16.1 mph 23.0 mph N/A   Overcast
1:15 PM 62.6 °F 50.0 °F 63% 30.11 in 10.0 mi NNW 17.3 mph 23.0 mph N/A   Mostly Cloudy
1:35 PM 62.6 °F 50.0 °F 63% 30.11 in 10.0 mi NNW 15.0 mph 20.7 mph N/A   Overcast
1:55 PM 64.4 °F 50.0 °F 59% 30.11 in 10.0 mi NW 15.0 mph 21.9 mph N/A   Mostly Cloudy
2:15 PM 62.6 °F 50.0 °F 63% 30.11 in 10.0 mi North 15.0 mph 23.0 mph N/A   Mostly Cloudy
2:55 PM 66.2 °F 50.0 °F 56% 30.11 in 10.0 mi NNW 11.5 mph 19.6 mph N/A   Mostly Cloudy
3:15 PM 66.2 °F 50.0 °F 56% 30.10 in 10.0 mi NNW 13.8 mph - N/A   Scattered Clouds
3:35 PM 66.2 °F 48.2 °F 52% 30.10 in 10.0 mi NNW 15.0 mph - N/A   Scattered Clouds
3:55 PM 68.0 °F 48.2 °F 49% 30.10 in 10.0 mi NNW 9.2 mph 21.9 mph N/A   Partly Cloudy
4:15 PM 68.0 °F 48.2 °F 49% 30.10 in 10.0 mi NNW 12.7 mph 20.7 mph N/A   Partly Cloudy
4:35 PM 68.0 °F 46.4 °F 46% 30.10 in 10.0 mi NNW 13.8 mph - N/A   Clear
4:55 PM 68.0 °F 46.4 °F 46% 30.10 in 10.0 mi NW 13.8 mph - N/A   Clear
5:15 PM 68.0 °F 46.4 °F 46% 30.10 in 10.0 mi NNW 11.5 mph 18.4 mph N/A   Clear
5:35 PM 68.0 °F 46.4 °F 46% 30.09 in 10.0 mi NNW 11.5 mph - N/A   Clear
5:55 PM 68.0 °F 46.4 °F 46% 30.09 in 10.0 mi NW 10.4 mph - N/A   Clear
6:15 PM 68.0 °F 46.4 °F 46% 30.09 in 10.0 mi NNW 11.5 mph - N/A   Clear
6:35 PM 68.0 °F 46.4 °F 46% 30.09 in 10.0 mi North 11.5 mph - N/A   Clear
6:55 PM 68.0 °F 46.4 °F 46% 30.09 in 10.0 mi North 10.4 mph - N/A   Clear
7:15 PM 68.0 °F 46.4 °F 46% 30.09 in 10.0 mi North 8.1 mph - N/A   Clear
7:35 PM 66.2 °F 46.4 °F 49% 30.09 in 10.0 mi North 5.8 mph - N/A   Clear
7:55 PM 66.2 °F 48.2 °F 52% 30.10 in 10.0 mi North 3.5 mph - N/A   Clear
8:15 PM 64.4 °F 48.2 °F 56% 30.10 in 10.0 mi Calm Calm - N/A   Clear
8:35 PM 59.0 °F 50.0 °F 72% 30.10 in 10.0 mi Calm Calm - N/A   Clear
8:55 PM 57.2 °F 50.0 °F 77% 30.11 in 10.0 mi ESE 4.6 mph - N/A   Clear
9:15 PM 53.6 °F 50.0 °F 88% 30.11 in 10.0 mi SE 4.6 mph - N/A   Clear
9:35 PM 51.8 °F 51.8 °F 100% 30.11 in 10.0 mi South 4.6 mph - N/A   Clear
9:55 PM 51.8 °F 51.8 °F 100% 30.11 in 10.0 mi SSW 4.6 mph - N/A   Clear
10:15 PM 51.8 °F 51.8 °F 100% 30.11 in 10.0 mi SSW 5.8 mph - N/A   Clear
10:35 PM 51.8 °F 51.8 °F 100% 30.10 in 10.0 mi SSW 6.9 mph - N/A   Clear
10:55 PM - - N/A% 30.10 in 10.0 mi SSW 6.9 mph - N/A   Clear
11:15 PM 50.0 °F 50.0 °F 100% 30.10 in 10.0 mi SSW 9.2 mph - N/A   Clear
11:35 PM 50.0 °F 50.0 °F 100% 30.11 in 10.0 mi SSW 6.9 mph - N/A   Clear
11:55 PM 50.0 °F 50.0 °F 100% 30.11 in 10.0 mi SSW 6.9 mph - N/A   Clear